Showing default

MOLNIYA 2-10, 7376

Orbit data source: Space-Track

MOLNIYA 2-10, 7376 is a payload satellite owned by GUKOS RVSN (CIS) in HEO that was launched on Tue, 23 Jul 1974 UTC via an MOLNIYA 8K78M launch vehicle from the Plesetsk Missile And Space Complex (PKMTR). Payload-class satellites include a variety of spacecraft equipped with specific instruments for various scientific and technological missions. These include communications satellites like Starlink; space stations such as the ISS; scientific satellites like the Hubble; Earth observation satellites from companies like Planet Labs, Umbra, and HawkEye 360; GPS; miniature CubeSats for education and research; and military/defense satellites.

Loading next visibility...
Identifier
7376, 1974-056A
Orbit
HEO
Country
Flag of CISCIS
Related business
Manufacturer
OKB-10
Mission
Defense Communications
Bus & Motor
MOLNIYA-2, Unknown motor
Mass
~1,650 kg wet, ~1,620 kg dry
Launch date (UTC)
1974-07-23 (51 years ago)
Launch vehicle
MOLNIYA 8K78M
Launch site
Plesetsk Missile And Space Complex (PKMTR)
Object type
Payload
Rocket body
Debris
Shape & HBR
Cyl + 6 Pan, 4.1 m
Radar Cross Section
15.101 m², Large (>1 m²)

Expand to show TLE details & history
Last TLE update: 4 days ago

TLE from 4 days ago
0 MOLNIYA 2-10
1 07376U 74056A   25257.24027244 -.00000305  00000-0  00000-0 0  9990
2 07376  65.3968 328.5687 6798083 273.0465  17.5540  2.01206484374181
Epoch: 2025-09-14T05:45Z
TLE epoch observation values (Epoch: 2025-09-14T05:45:59.538Z)
Latitude
0.00002°
Longitude
-111.36013°
Altitude
7,426.19 km
Speed
6.536 km/s
True Right ascension
21h 54m 24s
True Declination
0° 00' 00"
Sunlit
Object was in full shadow at epoch
Visualization orbit readout
Latitude
Unknown
Longitude
Unknown
Altitude
Unknown
Speed
Unknown
Apparent Right ascension
Unknown
Apparent Declination
Unknown
Sunlit
N/A
Visualization observer readout
Local Sidereal Time
04:16:40
Azimuth
Unknown
Elevation
Unknown
Doppler factor
Unknown
Orbital elements
Apogee altitude
38,141.398 km
Perigee altitude
2,107.823 km
Semi-major axis
26,502.747 km
Eccentricity
0.67981
Inclination
65.3968°
RAAN
328.5687°
Arg. of periapsis
273.0465°
True anomaly
87.24677°
Mean anomaly
17.554°
Eccentric anomaly
45.18442°
Mean motion
0.50304 °/min
Orbital period
715.64 mins
BSTAR
0
Loading maneuver chart data...
Computing Atmospheric mass density...
Loading historical data...
Loading historical data...
Loading historical data...
Loading historical data...
Loading historical data...
Loading historical data...
Loading historical data...
Other satellites on launch #56 in the year 1974 (1974-07-23 UTC)

Documentation

Showing up to 5 results
|